Terug naar catalogus

NVS-01

ActiefNavigatieGEO
NORAD 56759·PAYLOAD·🇮🇳 India

Gelanceerd May 29, 2023 vanaf Satish Dhawan Space Centre

Loading…

TLE

VersSource: CelesTrak SupGP

Epoch: Sep 13, 2026, 23:59 UTC

1 56759C 23076A   26256.99979167 -.00000249  00000+0  00000+0 0  2568
2 56759   1.9632 240.1130 0005710 359.6944 242.5890  1.00276923    10

Volg NVS-01 in realtime met AllMySat

Download on the App Store